Home   Weather   Albury   Past weeks

Flag for Australia Past Weather in Albury, New South Wales, Australia — Yesterday and Last 2 Weeks

Now
46 °F

Mostly cloudy.


Feels Like: 40 °F
Forecast: 42 / 51 °F
Wind: 14 mph from Northwest

Location: Albury Airport

Current Time: Aug 18, 2017 at 3:44:20 am

Latest Report: Aug 18, 2017 at 3:00 am


Visibility: N/A

Pressure: 29.77 "Hg

Humidity: 82%

Dew Point: 41 °F

Location of AlburyLocation

Past Weather in Albury — Graph

°F

Albury Temperature Yesterday

Maximum temperature yesterday: 57 °F (at 3:00 pm)
Minimum temperature yesterday: 46 °F (at 6:00 pm)
Average temperature yesterday: 51 °F

High & Low Weather Summary for the Past Weeks

 TemperatureHumidityPressure
High66 °F (Aug 14, 2:00 pm)100% (Aug 3, 7:00 pm)30.27 "Hg (Aug 3, 7:00 pm)
Low32 °F (Aug 8, 6:00 am)46% (Aug 14, 3:00 pm)29.47 "Hg (Aug 16, 3:00 am)
Average49 °F86%29.91 "Hg
* Reported Aug 3 2:00 am — Aug 18 2:32 am, Albury. Weather by CustomWeather, © 2017

Note: Actual official high and low records may vary slightly from our data, if they occured in-between our weather recording intervals... More about our weather records

Advertising

Albury Weather History for the Previous 24 Hours

Scroll right to see more
 ConditionsComfort  
Time TempWeatherWind HumidityBarometerVisibility
2:32 am
Fri, Aug 18
46 °FMostly cloudy.16 mph82%29.77 "HgN/A
2:00 am46 °FOvercast.18 mph82%29.74 "HgN/A
1:00 am46 °FClear.14 mph82%29.74 "HgN/A
12:00 am48 °FPartly cloudy.16 mph82%29.77 "HgN/A
11:00 pm
Thu, Aug 17
48 °FPassing clouds.14 mph82%29.74 "HgN/A
10:00 pm48 °FPartly cloudy.12 mph87%29.74 "HgN/A
9:00 pm48 °FPartly cloudy.10 mph87%29.77 "HgN/A
8:00 pm46 °FPartly cloudy.8 mph93%29.77 "HgN/A
7:00 pm46 °FMostly cloudy.9 mph93%29.74 "HgN/A
6:00 pm46 °FOvercast.15 mph93%29.74 "Hg5 mi
5:23 pm48 °FBroken clouds.32 mph82%29.68 "HgN/A
4:00 pm55 °FScattered clouds.17 mph72%29.65 "HgN/A
3:00 pm57 °FScattered clouds.13 mph67%29.65 "HgN/A
2:00 pm54 °FCloudy.13 mph77%29.65 "HgN/A
1:00 pm55 °FMostly cloudy.15 mph67%29.68 "HgN/A
12:08 pm55 °FBroken clouds.15 mph72%29.68 "HgN/A
11:00 am55 °FBroken clouds.17 mph72%29.71 "HgN/A
10:00 am52 °FCloudy.16 mph72%29.71 "HgN/A
9:00 am52 °FScattered clouds.13 mph72%29.74 "HgN/A
8:00 am48 °FPartly sunny.9 mph82%29.74 "HgN/A
7:00 am48 °FMore clouds than sun.6 mph82%29.74 "HgN/A
6:00 am48 °FPassing clouds.8 mph87%29.71 "HgN/A
5:00 am50 °FMostly cloudy.6 mph76%29.71 "HgN/A
4:00 am48 °FOvercast.7 mph82%29.74 "HgN/A
3:00 am50 °FMostly cloudy.7 mph76%29.74 "HgN/A
Weather by CustomWeather, © 2017

See weather overviewHow to use our weather pages